Location: Hackberry
(29.5783°N, 96.8797°W)
Time: 00:53:40
(UTC+00:00)

ARIANE 6 FM1 Upper Stage - Visible Passes

Search period start: 16 October 2024 00:00
Search period end: 26 October 2024 00:00
Orbit: 563 x 595 km, 62.0° (Epoch: 15 October)

Date Brightness Start Highest point End Pass type
(mag) Time Alt. Az. Time Alt. Az. Time Alt. Az.
20 Oct 5.2 01:19:50 10° NNE 01:20:01 11° NNE 01:20:01 11° NNE visible
21 Oct 4.7 01:23:12 10° N 01:24:41 17° NNE 01:24:41 17° NNE visible
22 Oct 4.0 01:26:56 10° NNW 01:29:31 29° NNE 01:29:31 29° NNE visible
23 Oct 3.0 01:30:55 10° NNW 01:34:35 57° N 01:34:35 57° N visible
24 Oct 3.0 01:35:07 10° NW 01:39:26 65° WSW 01:39:57 59° SSW visible
25 Oct 4.2 01:39:33 10° NW 01:43:32 36° WSW 01:45:47 21° SSW visible
